[[{"header":{"parameterUnit":"m.s-1","parameterCategory":1,"la1":30.2991,"la2":30.254,"lo1":-89.0895,"lo2":-89.0444,"dy":0.0017,"dx":0.0017,"nx":28,"ny":28,"refTime":"2024-08-31T21:00:00:Z","depth":0,"parameterNumber":2,"parameterNumberName":"U-component_of_WINDS"},"data":[0,0,0,0,0,0,0,0,0,0,0,0,0,0,0,0,0,0,0,0,0,0,0,0,0,0,0,0,0,0,0,0,0,0,0,0,0,0,0,0,0,0,0,0,0,0,0,0,0,0,0,0,0,0,0,0,0,0,-2.7748,-2.7749,0,-2.7829,-2.783,-2.7831,-2.7725,-2.7721,-2.7718,-2.7714,-2.78,-2.7805,-2.7811,0,0,0,0,0,0,0,0,0,0,0,0,0,-2.7506,-2.7511,-2.7748,-2.7749,-2.775,-2.7829,-2.783,-2.7831,-2.7726,-2.7721,-2.7717,-2.7712,-2.7798,-2.7805,-2.7812,0,0,0,0,0,0,0,0,0,0,0,0,0,-2.7601,-2.7512,-2.7748,-2.7707,-2.7704,-2.7828,-2.783,-2.7831,-2.7727,-2.7721,-2.7715,-2.771,-2.7795,-2.7804,-2.7813,-2.7982,0,0,-2.7839,-2.7843,0,0,0,0,0,0,0,0,-2.7596,-2.761,-2.7712,-2.771,-2.7707,-2.7761,-2.7776,-2.7882,-2.7728,-2.7718,-2.7714,-2.7707,-2.7792,-2.78,-2.7828,-2.7986,-2.7989,-2.784,-2.7845,-2.7849,-2.7852,0,0,0,0,0,0,0,-2.759,-2.7606,-2.778,-2.7714,-2.7711,-2.7686,-2.7693,-2.7795,-2.7786,-2.7719,-2.7711,-2.7722,-2.7789,-2.782,-2.7829,-2.7991,-2.784,-2.7848,-2.7853,-2.7857,-2.8292,-2.8298,0,0,0,0,0,0,-2.7587,-2.7602,-2.7777,-2.7782,-2.7636,-2.7695,-2.7703,-2.775,-2.7785,-2.7785,-2.7727,-2.7717,-2.7808,-2.7819,-2.7832,-2.8033,-2.7849,-2.7857,-2.7862,-2.8286,-2.8293,-2.83,0,0,0,0,0,0,-2.7583,-2.7604,-2.7774,-2.769,-2.771,-2.7705,-2.7758,-2.7754,-2.7785,-2.7791,-2.7789,-2.776,-2.7804,-2.782,-2.7945,-2.8035,-2.7861,-2.7869,-2.8278,-2.8288,-2.8297,-2.8437,0,0,0,0,0,0,-2.7576,-2.7603,-2.7667,-2.7692,-2.7715,-2.7886,-2.7764,-2.776,-2.78,-2.7788,-2.7821,-2.7822,-2.78,-2.7933,-2.7954,-2.8044,-2.7876,-2.827,-2.8283,-2.8294,-2.8424,-2.845,-2.8472,0,0,0,0,0,-2.7568,-2.7703,-2.767,-2.7692,-2.7794,-2.7891,-2.7904,-2.7876,-2.7807,-2.7872,-2.7876,-2.7821,-2.8021,-2.7947,-2.797,-2.8063,-2.8265,-2.8279,-2.8293,-2.8414,-2.8445,-2.8472,0,0,0,0,0,0,-2.769,-2.7706,-2.767,-2.7817,-2.7854,-2.7873,-2.7954,-2.791,-2.7967,-2.7954,-2.7917,-2.7926,-2.806,-2.8074,-2.799,-2.8229,-2.8132,-2.8151,-2.8216,-2.8246,-2.8269,-2.8264,-2.7883,0,0,0,0,0,-2.7733,-2.781,-2.782,-2.795,-2.797,-2.7959,-2.8,-2.7975,-2.8012,-2.8027,-2.804,-2.8079,-2.815,-2.8198,-2.8264,-2.8425,-2.8432,-2.8501,-2.8525,-2.8544,-2.8562,-2.865,-2.8681,-2.8347,-2.8347,-2.8346,0,0,-2.7825,-2.7843,-2.7894,-2.7975,-2.8,-2.8081,-2.7972,-2.8063,-2.8123,-2.8041,-2.816,-2.8172,-2.8212,-2.8356,-2.8421,-2.8372,-2.8656,-2.8563,-2.8578,-2.8585,-2.8668,-2.8699,-2.8728,-2.8356,-2.8355,-2.8353,0,0,-2.8034,-2.8055,-2.8166,-2.8193,-2.8232,-2.8224,-2.8251,-2.8277,-2.8281,-2.84,-2.834,-2.8412,-2.8535,-2.8567,-2.8599,-2.8821,-2.8773,-2.8843,-2.8969,-2.9054,-2.9081,-2.9104,-2.9184,-2.9213,-2.886,-2.8861,-2.8861,0,-2.8144,-2.8263,-2.8228,-2.8323,-2.8361,-2.8289,-2.8401,-2.843,-2.8489,-2.8517,-2.8461,-2.8616,-2.8638,-2.8789,-2.8843,-2.8871,-2.8902,-2.884,-2.9079,-2.9102,-2.9123,-2.92,-2.923,-2.8869,-2.8868,-2.8867,-2.8867,0,-2.8396,-2.848,-2.8565,-2.8623,-2.867,-2.8774,-2.8756,-2.8807,-2.8778,-2.8777,-2.89,-2.8923,-2.8993,-2.9027,-2.9,-2.9175,-2.9144,-2.9085,-2.8986,-2.9164,-2.9236,-2.9265,-2.8881,-2.8878,-2.8876,-2.8874,0,0,-2.8686,-2.8723,-2.8755,-2.8781,-2.8819,-2.8883,-2.8984,-2.9051,-2.9097,-2.9141,-2.9225,-2.9331,-2.9276,-2.9313,-2.9289,-2.9364,-2.954,-2.9295,-2.9296,-2.9341,-2.9736,-2.9782,-2.9817,-2.9507,-2.9512,-2.9517,-2.9733,0,-2.8896,-2.9069,-2.904,-2.9208,-2.9286,-2.9218,-2.9306,-2.9339,-2.934,-2.9407,-2.9408,-2.9485,-2.9405,-2.9427,-2.9498,-2.9503,-2.9619,-2.9487,-2.9587,-2.9591,-2.9581,-2.9853,-2.9902,-3.0106,-2.9761,-2.9765,-2.9769,0,-2.9164,-2.9217,-2.9393,-2.9419,-2.945,-2.9529,-2.959,-2.9654,-2.9691,-2.9686,-2.9727,-2.9689,-2.9791,-2.9689,-2.9829,-2.974,-2.9779,-2.9788,-2.9795,-2.9805,-2.9692,-2.9873,-3.017,-3.0201,-2.9812,-2.9809,-2.9806,0,-2.936,-2.9475,-2.9595,-2.9619,-2.9652,-2.9709,-2.9726,-2.9757,-2.9799,-2.9852,-2.988,-2.9944,-2.998,-3.0031,-3.0012,-2.994,-3.0157,-3.0053,-3.0157,-3.0158,-3.0208,-3.0205,-3.0517,-3.023,-3.023,-3.0229,-3.0228,0,-2.9599,-2.971,-2.9683,-2.9757,-2.9879,-2.9846,-2.9968,-2.9977,-3.0005,-3.008,-3.0025,-3.0098,-3.0067,-3.0137,-3.0123,-3.0242,-3.0258,-3.0259,-3.0254,-3.0265,-3.0265,-3.0291,-3.0277,-3.0237,-3.0235,-3.0234,-3.0232,0,-2.9839,-2.9825,-2.9952,-2.9972,-2.998,-3.007,-3.0088,-3.0158,-3.0154,-3.025,-3.0271,-3.0266,-3.0346,-3.0331,-3.042,-3.041,-3.056,-3.0537,-3.0548,-3.0543,-3.0649,-3.064,-3.099,-3.1035,-3.0717,-3.072,-3.0723,0,-2.9993,-3.0077,-3.0106,-3.0152,-3.0173,-3.0248,-3.0291,-3.0261,-3.0309,-3.0357,-3.0422,-3.0497,-3.0555,-3.0687,-3.0692,-3.076,-3.0739,-3.0857,-3.0749,-3.0758,-3.0743,-3.0739,-3.0748,-3.0879,-3.0883,-3.0886,-3.0888,0,-3.0269,-3.0258,-3.0322,-3.0384,-3.0437,-3.0485,-3.0527,-3.0568,-3.0542,-3.0599,-3.068,-3.0725,-3.0815,-3.0891,-3.0955,-3.0972,-3.0928,-3.0922,-3.095,-3.0963,-3.0966,-3.0968,-3.0608,-3.0915,-3.0912,-3.091,-3.0909,-3.0907,-3.0472,-3.0543,-3.0575,-3.0648,-3.0677,-3.0718,-3.0785,-3.0789,-3.0856,-3.0927,-3.0905,-3.0998,-3.1033,-3.1113,-3.1138,-3.1211,-3.1167,-3.1207,-3.1218,-3.1229,-3.1242,-3.0953,-3.1222,-3.1221,-3.1221,-3.122,-3.1219,0,-3.0746,-3.0763,-3.0831,-3.0892,-3.095,-3.09,-3.0944,-3.0997,-3.1079,-3.1115,-3.1173,-3.1267,-3.134,-3.1351,-3.1421,-3.1477,-3.1458,-3.1497,-3.1493,-3.1498,-3.1277,-3.1246,-3.1511,-3.1511,-3.1511,-3.1511,-3.151,-3.151,-3.0896,-3.1014,-3.1008,-3.114,-3.1156,-3.1246,-3.1276,-3.1314,-3.1342,-3.1449,-3.151,-3.1515,-3.1542,-3.1613,-3.1678,-3.1679,-3.1709,-3.1756,-3.175,-3.1543,-3.1514,-3.1486,-3.1457,-3.1762,-3.1762,-3.1965,-3.1967,-3.1968]},{"header":{"parameterUnit":"m.s-1","parameterCategory":1,"la1":30.2991,"la2":30.254,"lo1":-89.0895,"lo2":-89.0444,"dy":0.0017,"dx":0.0017,"nx":28,"ny":28,"refTime":"2024-08-31T21:00:00:Z","depth":0,"parameterNumber":3,"parameterNumberName":"V-component_of_WINDS"},"data":[0,0,0,0,0,0,0,0,0,0,0,0,0,0,0,0,0,0,0,0,0,0,0,0,0,0,0,0,0,0,0,0,0,0,0,0,0,0,0,0,0,0,0,0,0,0,0,0,0,0,0,0,0,0,0,0,0,0,-1.7535,-1.7535,0,-1.7512,-1.7512,-1.7512,-1.7491,-1.7491,-1.7491,-1.749,-1.7466,-1.7466,-1.7466,0,0,0,0,0,0,0,0,0,0,0,0,0,-1.7558,-1.7558,-1.7535,-1.7535,-1.7535,-1.7512,-1.7512,-1.7512,-1.7491,-1.7491,-1.7491,-1.749,-1.7467,-1.7466,-1.7466,0,0,0,0,0,0,0,0,0,0,0,0,0,-1.7543,-1.7558,-1.7535,-1.7522,-1.752,-1.7513,-1.7512,-1.7512,-1.7491,-1.7491,-1.749,-1.749,-1.7467,-1.7466,-1.7466,-1.7469,0,0,-1.7464,-1.7463,0,0,0,0,0,0,0,0,-1.7544,-1.7542,-1.7524,-1.7523,-1.7521,-1.7504,-1.7512,-1.7497,-1.7491,-1.7502,-1.749,-1.749,-1.7479,-1.7478,-1.7474,-1.7468,-1.7467,-1.7464,-1.7463,-1.7463,-1.7463,0,0,0,0,0,0,0,-1.7545,-1.7543,-1.7526,-1.7524,-1.7522,-1.7516,-1.7513,-1.7509,-1.7493,-1.7501,-1.75,-1.7497,-1.7478,-1.7475,-1.7473,-1.7467,-1.7464,-1.7463,-1.7463,-1.7462,-1.746,-1.746,0,0,0,0,0,0,-1.7549,-1.7544,-1.7527,-1.7525,-1.7532,-1.7516,-1.7513,-1.751,-1.7493,-1.749,-1.7498,-1.7496,-1.7476,-1.7474,-1.7473,-1.7474,-1.7463,-1.7462,-1.7462,-1.746,-1.746,-1.746,0,0,0,0,0,0,-1.7549,-1.7547,-1.7528,-1.7534,-1.7532,-1.7516,-1.7513,-1.751,-1.7506,-1.749,-1.7487,-1.7497,-1.7476,-1.7473,-1.747,-1.7473,-1.7462,-1.7462,-1.7459,-1.746,-1.746,-1.7478,0,0,0,0,0,0,-1.755,-1.7548,-1.755,-1.7535,-1.7531,-1.7526,-1.7513,-1.751,-1.7505,-1.7503,-1.7489,-1.7486,-1.7475,-1.7471,-1.7469,-1.7472,-1.7461,-1.7459,-1.7459,-1.746,-1.7477,-1.7479,-1.7481,0,0,0,0,0,-1.7551,-1.7556,-1.755,-1.7548,-1.7533,-1.7526,-1.7524,-1.7512,-1.7506,-1.7507,-1.7496,-1.7487,-1.7473,-1.747,-1.7468,-1.7471,-1.7459,-1.7459,-1.746,-1.7477,-1.7479,-1.7481,0,0,0,0,0,0,-1.7572,-1.7554,-1.7547,-1.7548,-1.7539,-1.7523,-1.7524,-1.7515,-1.7508,-1.7506,-1.7491,-1.7488,-1.7485,-1.7478,-1.7476,-1.7473,-1.7464,-1.7465,-1.7478,-1.748,-1.7482,-1.7483,-1.7461,0,0,0,0,0,-1.7577,-1.7573,-1.7557,-1.7559,-1.7555,-1.754,-1.7537,-1.7528,-1.7518,-1.7514,-1.7503,-1.7494,-1.7487,-1.7483,-1.7476,-1.7476,-1.7472,-1.7477,-1.7479,-1.748,-1.7481,-1.7478,-1.748,-1.7462,-1.7462,-1.7462,0,0,-1.7587,-1.7576,-1.7575,-1.7563,-1.7555,-1.7551,-1.7538,-1.7534,-1.753,-1.7513,-1.7509,-1.7501,-1.7489,-1.7486,-1.7485,-1.748,-1.7484,-1.7481,-1.7483,-1.7482,-1.7479,-1.748,-1.7482,-1.7463,-1.7463,-1.7463,0,0,-1.7602,-1.7595,-1.7594,-1.7586,-1.7574,-1.7564,-1.7564,-1.7549,-1.7543,-1.7538,-1.7525,-1.752,-1.7509,-1.75,-1.7495,-1.7504,-1.7494,-1.7502,-1.7512,-1.751,-1.7511,-1.7512,-1.7514,-1.7515,-1.7503,-1.7503,-1.7503,0,-1.7616,-1.7609,-1.7595,-1.7592,-1.7586,-1.7571,-1.7569,-1.7562,-1.7549,-1.7545,-1.754,-1.7524,-1.7515,-1.751,-1.7512,-1.7508,-1.7506,-1.7504,-1.7512,-1.7513,-1.7514,-1.7516,-1.7517,-1.7504,-1.7504,-1.7504,-1.7504,0,-1.7626,-1.7621,-1.7622,-1.7609,-1.7603,-1.7601,-1.7586,-1.7582,-1.7573,-1.7563,-1.7557,-1.7545,-1.7535,-1.7533,-1.7524,-1.7525,-1.7523,-1.7515,-1.7506,-1.7517,-1.7518,-1.7519,-1.7505,-1.7505,-1.7505,-1.7504,0,0,-1.7655,-1.7633,-1.7633,-1.7626,-1.761,-1.7606,-1.7602,-1.7592,-1.7588,-1.7579,-1.7574,-1.7564,-1.7556,-1.755,-1.754,-1.7538,-1.7544,-1.753,-1.753,-1.7532,-1.7543,-1.7548,-1.7549,-1.7537,-1.7538,-1.7538,-1.7543,0,-1.7667,-1.766,-1.7646,-1.7643,-1.7637,-1.7621,-1.7618,-1.7607,-1.7597,-1.759,-1.7579,-1.7572,-1.7563,-1.7559,-1.7556,-1.7544,-1.7546,-1.7543,-1.7532,-1.7532,-1.7535,-1.755,-1.7556,-1.7562,-1.7544,-1.7544,-1.7544,0,-1.768,-1.7671,-1.7667,-1.765,-1.7647,-1.7645,-1.7633,-1.7627,-1.7614,-1.7607,-1.7598,-1.7587,-1.758,-1.7572,-1.7563,-1.7561,-1.7556,-1.7549,-1.7549,-1.7547,-1.7539,-1.7548,-1.7564,-1.7565,-1.7545,-1.7545,-1.7545,0,-1.77,-1.7687,-1.7682,-1.7677,-1.7657,-1.7655,-1.7647,-1.7634,-1.7628,-1.7617,-1.7612,-1.7601,-1.7595,-1.7586,-1.7572,-1.7567,-1.7563,-1.7554,-1.7556,-1.7556,-1.7556,-1.7556,-1.7571,-1.7553,-1.7553,-1.7553,-1.7553,0,-1.7715,-1.7713,-1.7691,-1.7688,-1.7685,-1.7668,-1.7665,-1.7655,-1.7643,-1.7637,-1.7622,-1.7617,-1.7598,-1.759,-1.7579,-1.7571,-1.7569,-1.7562,-1.7559,-1.7563,-1.7564,-1.7559,-1.7558,-1.7553,-1.7553,-1.7553,-1.7553,0,-1.7737,-1.7722,-1.7716,-1.7697,-1.7693,-1.7691,-1.7674,-1.767,-1.7659,-1.7651,-1.7648,-1.763,-1.762,-1.7604,-1.759,-1.7582,-1.7576,-1.7571,-1.758,-1.7578,-1.758,-1.758,-1.7592,-1.7592,-1.7576,-1.7576,-1.7576,0,-1.7747,-1.7745,-1.7725,-1.772,-1.7712,-1.7705,-1.7698,-1.7681,-1.7675,-1.7659,-1.7656,-1.7644,-1.7634,-1.7618,-1.7603,-1.7591,-1.7586,-1.759,-1.7584,-1.7587,-1.7584,-1.7584,-1.7583,-1.7592,-1.7592,-1.7593,-1.7593,0,-1.7765,-1.7758,-1.7749,-1.7737,-1.7729,-1.7719,-1.7708,-1.7705,-1.7686,-1.7679,-1.7668,-1.766,-1.7644,-1.7632,-1.7618,-1.7608,-1.7597,-1.7595,-1.7594,-1.7599,-1.7603,-1.76,-1.7584,-1.7595,-1.7595,-1.7594,-1.7594,-1.7594,-1.7781,-1.7777,-1.7763,-1.7753,-1.7743,-1.7732,-1.7727,-1.7715,-1.7705,-1.7691,-1.7682,-1.7671,-1.7656,-1.7635,-1.7626,-1.7616,-1.7612,-1.7612,-1.7611,-1.7611,-1.7612,-1.7605,-1.7614,-1.7614,-1.7614,-1.7614,-1.7614,0,-1.7798,-1.7787,-1.7778,-1.7763,-1.7755,-1.7745,-1.7732,-1.7725,-1.7716,-1.7703,-1.7693,-1.7679,-1.7667,-1.7651,-1.7637,-1.7633,-1.7627,-1.763,-1.763,-1.7627,-1.7618,-1.7619,-1.7634,-1.7634,-1.7634,-1.7634,-1.7634,-1.7634,-1.7805,-1.7799,-1.7789,-1.7776,-1.7766,-1.7755,-1.7748,-1.7738,-1.7727,-1.7713,-1.7703,-1.7692,-1.7677,-1.7662,-1.765,-1.7645,-1.7641,-1.7645,-1.7638,-1.763,-1.7628,-1.7626,-1.7627,-1.7644,-1.7644,-1.7648,-1.7648,-1.7648]}]]